• Join FlightAware (Why Join?)
  • Login
  • US Flag 
06:59AM EST


 

Airport Tracker/Info


-or-


 

Live Flight TrackerFlight Track Log ✈ N762VM ✈ 05-May-2013 ✈ KDTS - KBHM

Flight Track Log - Related Links

Times and Time Zones

All times are in EDT time to prevent confusion due to time zone crossing. See the N762VM flight status page for this flight to view local times or setup timezone preferences in your user account.

Time Position Orientation Groundspeed Altitude Reporting Facility
EDT Latitude Longitude Course Direction KTS MPH feet Rate Location/Type
02:17PM 30.4825 -86.3514 39° Northeast 190 219 5,300  Level Jacksonville Center
02:18PM 30.5308 -86.3458 North 161 185 6,700 1,450 Climbing Jacksonville Center
02:19PM 30.5789 -86.3478 358° North 155 178 8,200 1,250 Climbing Jacksonville Center
02:20PM 30.6331 -86.3472 North 176 203 9,200 900 Climbing Jacksonville Center
02:21PM 30.7163 -86.6330 319° Northwest  Level FlightAware Approximate
02:21PM 30.6956 -86.3472 360° North 199 229 10,000  Level Jacksonville Center
02:22PM 30.7727 -86.6465 344° North  Level FlightAware Approximate
02:22PM 30.7664 -86.3544 355° North 227 261 10,000  Level Jacksonville Center
02:23PM 30.8436 -86.3622 355° North 260 299 10,000 50 Level Jacksonville Center
02:24PM 30.9247 -86.3700 355° North 278 320 10,100 650 Climbing Jacksonville Center
02:25PM 30.9997 -86.3753 357° North 278 320 11,300 950 Climbing Jacksonville Center
02:26PM 31.0706 -86.3828 355° North 272 313 12,000 650 Climbing Jacksonville Center
02:27PM 31.1431 -86.3975 350° North 267 307 12,600 500 Climbing Jacksonville Center
02:28PM 31.2158 -86.4075 353° North 267 307 13,000 550 Climbing Jacksonville Center
02:29PM 31.2886 -86.4200 352° North 267 307 13,700 500 Climbing Jacksonville Center
02:30PM 31.3594 -86.4275 355° North 257 296 14,000 91 Climbing Jacksonville Center
02:33PM 31.5186 -86.4506 353° North 252 290 14,000  Level Atlanta Center
02:34PM 31.5933 -86.4647 351° North 257 296 14,000  Level Atlanta Center
02:35PM 31.6683 -86.4764 352° North 257 296 14,000  Level Atlanta Center
02:36PM 31.7433 -86.4858 354° North 262 302 14,000  Level Atlanta Center
02:37PM 31.8203 -86.4975 353° North 267 307 14,000  Level Atlanta Center
02:38PM 31.8972 -86.5119 351° North 272 313 14,000  Level Atlanta Center
02:39PM 31.9806 -86.5217 354° North 272 313 14,000  Level Atlanta Center
02:40PM 32.0575 -86.5336 353° North 272 313 14,000  Level Atlanta Center
02:41PM 32.1367 -86.5456 353° North 272 313 14,000  Level Atlanta Center
02:42PM 32.2136 -86.5550 354° North 272 313 14,000  Level Atlanta Center
02:43PM 32.2947 -86.5672 353° North 272 313 14,000  Level Atlanta Center
02:44PM 32.3739 -86.5794 353° North 272 313 14,000  Level Atlanta Center
02:45PM 32.4528 -86.5889 354° North 272 313 14,000 -100 Level Atlanta Center
02:46PM 32.5319 -86.5986 354° North 278 320 13,800 -650 Descending Atlanta Center
02:47PM 32.6172 -86.6133 352° North 290 334 12,700 -1,150 Descending Atlanta Center
02:48PM 32.7025 -86.6258 353° North 304 350 11,500 -900 Descending Atlanta Center
02:49PM 32.7817 -86.6406 351° North 297 342 10,900 -323 Descending Atlanta Center
02:49PM 32.8169 -86.6464 352° North 278 320 11,000 100 Climbing Atlanta Center
02:50PM 32.8586 -86.6478 358° North 286 329 11,000  Level Atlanta Center
02:50PM 32.9128 -86.6617 348° North 280 322 11,000  Level Atlanta Center
02:51PM 32.9917 -86.6739 353° North 279 321 11,000 -50 Level Atlanta Center
02:52PM 33.0689 -86.6811 356° North 278 320 10,900 -661 Descending Atlanta Center
02:54PM 33.1583 -86.6964 352° North 284 327 9,600 -1,087 Descending Atlanta Center
02:55PM 33.2228 -86.7083 351° North 218 251 8,600 -1,418 Descending Atlanta Center
02:55PM 33.2747 -86.7147 354° North 221 254 7,000 -1,727 Descending Atlanta Center
02:56PM 33.2933 -86.7153 359° North 241 277 6,700 -1,000 Descending Atlanta Center
02:56PM 33.3333 -86.7117 North 202 232 6,000 -700 Descending Atlanta Center
02:57PM 33.3417 -86.7094 13° North 216 249 6,000 -295 Level Atlanta Center
02:57PM 33.3914 -86.7208 349° North 222 255 5,700 -500 Descending Atlanta Center
02:58PM 33.4019 -86.7136 30° Northeast 209 241 5,500 -1,600 Descending Atlanta Center
02:58PM 33.4522 -86.7053 North 227 261 4,100 -1,600 Descending Atlanta Center
02:59PM 33.4650 -86.6983 24° Northeast 215 247 3,900 -985 Descending Atlanta Center
03:00PM 33.5092 -86.6872 12° North 193 222 3,000 -750 Descending Atlanta Center
03:01PM 33.5517 -86.6536 33° Northeast 172 198 2,500 -180 Descending Atlanta Center
03:02PM 33.6025 -86.6153 32° Northeast 176 203 2,600 45 Climbing Atlanta Center
03:03PM 33.6164 -86.6506 295° West 149 171 2,600 -382 Level Atlanta Center
03:04PM 33.6053 -86.6828 248° West 133 153 1,900 -716 Descending Atlanta Center
03:05PM 33.5878 -86.7144 236° Southwest 115 132 1,300 -600 Descending Atlanta Center